[TLELIST] Archives

 

[list_settings.list_name] Current TLEs

August 29th 2022 PST

HST 1 20580U 90037B 22240.84403902 .00001458 00000-0 74820-4 0 9997 2 20580 28.4705 49.0445 0002766 93.9817 44.9023 15.10797294577171 ISS (ZARYA) 1 25544U 98067A 22241.38033696 .00006975 00000-0 13024-3 0 9999 2 25544 51.6450 333.9762 0003281 173.1914 302.2976 15.49962082356533 CXO 1 25867U 99040B 22242.09491989 .00000927 00000-0 00000-0 0 9999 2 25867 43.3137 229.0348 8891186 237.9851 0.7551 0.37816799 12073 ____________________________________________________________________ These 2-Line ...Continue Reading

[list_settings.list_name] Current TLEs

August 28th 2022 PST

HST 1 20580U 90037B 22239.85242506 .00001349 00000-0 68393-4 0 9994 2 20580 28.4704 55.6173 0002764 84.1456 50.7838 15.10794673577021 ISS (ZARYA) 1 25544U 98067A 22240.41489071 .00006599 00000-0 12373-3 0 9992 2 25544 51.6449 338.7604 0003298 171.8593 313.0361 15.49946773356385 CXO 1 25867U 99040B 22242.09491989 .00000927 00000-0 00000-0 0 9999 2 25867 43.3137 229.0348 8891186 237.9851 0.7551 0.37816799 12073 ____________________________________________________________________ These 2-Line ...Continue Reading

[list_settings.list_name] Current TLEs

August 27th 2022 PST

HST 1 20580U 90037B 22238.86056045 .00001198 00000-0 59543-4 0 9994 2 20580 28.4704 62.1916 0002750 74.2489 55.3676 15.10791842576878 ISS (ZARYA) 1 25544U 98067A 22238.79924956 .00004796 00000-0 92206-4 0 9997 2 25544 51.6439 346.7648 0003492 165.4333 298.6058 15.49921111356131 CXO 1 25867U 99040B 22239.44932296 .00000901 00000-0 00000-0 0 9997 2 25867 43.4058 229.3126 8891104 237.7957 0.6235 0.37813796 12069 ____________________________________________________________________ These 2-Line ...Continue Reading

[list_settings.list_name] Current TLEs

August 26th 2022 PST

HST 1 20580U 90037B 22237.28220076 .00001200 00000-0 59662-4 0 9992 2 20580 28.4702 72.6532 0002721 58.3718 109.7562 15.10788487576635 ISS (ZARYA) 1 25544U 98067A 22238.34812926 .00004252 00000-0 82680-4 0 9993 2 25544 51.6433 349.0008 0003418 165.2101 300.0466 15.49916406356064 CXO 1 25867U 99040B 22239.44932296 .00000901 00000-0 00000-0 0 9997 2 25867 43.4058 229.3126 8891104 237.7957 0.6235 0.37813796 12069 ____________________________________________________________________ These 2-Line ...Continue Reading

[list_settings.list_name] Current TLEs

August 25th 2022 PST

HST 1 20580U 90037B 22237.21281968 .00001204 00000-0 59917-4 0 9999 2 20580 28.4702 73.1131 0002719 57.6793 92.3474 15.10788354576898 ISS (ZARYA) 1 25544U 98067A 22237.36915490 -.00259173 00000-0 -47121-2 0 9999 2 25544 51.6403 353.8478 0003123 168.6722 230.6017 15.49832154355914 CXO 1 25867U 99040B 22239.44932296 .00000901 00000-0 00000-0 0 9997 2 25867 43.4058 229.3126 8891104 237.7957 0.6235 0.37813796 12069 ____________________________________________________________________ These 2-Line ...Continue Reading

[list_settings.list_name] Current TLEs

August 24th 2022 PST

HST 1 20580U 90037B 22235.74088044 .00001207 00000-0 60116-4 0 9991 2 20580 28.4700 82.8698 0002688 42.9153 5.5909 15.10784528576408 ISS (ZARYA) 1 25544U 98067A 22236.34828140 .00005850 00000-0 10925-3 0 9993 2 25544 51.6437 358.9021 0005107 154.3750 303.9467 15.50304916355755 CXO 1 25867U 99040B 22239.44922860 .00000901 00000-0 00000+0 0 9992 2 25867 43.4058 229.3127 8891110 237.7958 0.6106 0.37813329 23227 ____________________________________________________________________ These 2-Line ...Continue Reading

[list_settings.list_name] Current TLEs

August 23rd 2022 PST

HST 1 20580U 90037B 22234.87488203 .00001508 00000-0 77755-4 0 9996 2 20580 28.4700 88.6099 0002658 34.0525 335.0923 15.10783517576278 ISS (ZARYA) 1 25544U 98067A 22235.37254381 .00006905 00000-0 12753-3 0 9998 2 25544 51.6448 3.7387 0004963 149.8961 259.1698 15.50296633355607 CXO 1 25867U 99040B 22236.80446915 .00000787 00000-0 00000-0 0 9994 2 25867 43.4816 229.5560 8889483 237.6255 0.6184 0.37809187 12064 ____________________________________________________________________ These 2-Line ...Continue Reading

[list_settings.list_name] Current TLEs

August 22nd 2022 PST

HST 1 20580U 90037B 22234.04286391 .00001703 00000-0 89215-4 0 9990 2 20580 28.4699 94.1249 0002631 25.4990 129.4685 15.10781768576417 ISS (ZARYA) 1 25544U 98067A 22234.33923497 .00008370 00000-0 15291-3 0 9992 2 25544 51.6441 8.8592 0005277 147.2169 251.1236 15.50287789355449 CXO 1 25867U 99040B 22234.16333864 .00000628 00000-0 00000-0 0 9993 2 25867 43.5429 229.7698 8887387 237.4748 1.1172 0.37807172 12048 ____________________________________________________________________ These 2-Line ...Continue Reading

[list_settings.list_name] Current TLEs

August 21st 2022 PST

HST 1 20580U 90037B 22232.89087319 .00001807 00000-0 95369-4 0 9992 2 20580 28.4699 101.7607 0002588 13.3960 343.6784 15.10778277575964 ISS (ZARYA) 1 25544U 98067A 22233.38270935 .00007735 00000-0 14201-3 0 9992 2 25544 51.6441 13.5987 0005478 145.0063 311.4361 15.50269347355294 CXO 1 25867U 99040B 22234.16333864 .00000628 00000-0 00000-0 0 9993 2 25867 43.5429 229.7698 8887387 237.4748 1.1172 0.37807172 12048 ____________________________________________________________________ These 2-Line ...Continue Reading

[list_settings.list_name] Current TLEs

August 20th 2022 PST

HST 1 20580U 90037B 22231.40268613 .00002177 00000-0 11708-3 0 9991 2 20580 28.4699 111.6248 0002542 357.5324 169.5372 15.10775033575743 ISS (ZARYA) 1 25544U 98067A 22232.37041323 .00006183 00000-0 11523-3 0 9997 2 25544 51.6445 18.6157 0005512 139.5373 63.5979 15.50247417355131 CXO 1 25867U 99040B 22234.16333864 .00000628 00000-0 00000-0 0 9993 2 25867 43.5429 229.7698 8887387 237.4748 1.1172 0.37807172 12048 ____________________________________________________________________ These 2-Line ...Continue Reading
  • This mailing list is a public mailing list - anyone may join or leave, at any time.
  • This mailing list is announce-only.

International Space Station (ISS) / Hubble Space Telescope (HST) / Chandra X-Ray Observatory Orbital Data via EMAIL

Privacy Policy:

Private list